Time,TemperatureF,DewpointF,PressureIn,WindDirection,WindDirectionDegrees,WindSpeedMPH,WindSpeedGustMPH,Humidity,HourlyPrecipIn,Conditions,Clouds,dailyrainin,SolarRadiationWatts/m^2,SoftwareType,DateUTC
2013-04-07 00:00:00,66.3,61.7,30.06,NNE,18,0.0,0.0,85,0.00,,SCT040,0.00,79.00,VWS V14.01,2013-04-07 04:00:00,
2013-04-07 00:01:00,66.3,61.7,30.05,NNE,18,0.0,0.0,85,0.00,,SCT040,0.00,79.00,VWS V14.01,2013-04-07 04:01:00,
2013-04-07 00:06:00,66.2,61.6,30.05,NNE,18,0.0,0.0,85,0.00,,SCT040,0.00,79.00,VWS V14.01,2013-04-07 04:06:00,
2013-04-07 00:12:00,66.3,62.0,30.05,NNE,18,0.0,1.0,86,0.00,,SCT040,0.00,79.00,VWS V14.01,2013-04-07 04:12:00,
2013-04-07 00:17:00,66.5,62.2,30.05,NNE,18,0.0,1.0,86,0.00,,SCT040,0.00,79.00,VWS V14.01,2013-04-07 04:17:00,
2013-04-07 00:22:00,66.8,62.5,30.05,NNE,31,1.0,3.0,86,0.00,,SCT040,0.00,79.00,VWS V14.01,2013-04-07 04:22:00,
2013-04-07 00:27:00,67.2,62.9,30.05,NE,42,2.0,3.0,86,0.00,,SCT040,0.00,79.00,VWS V14.01,2013-04-07 04:27:00,
2013-04-07 00:32:00,67.8,63.5,30.05,East,84,0.0,4.0,86,0.00,,SCT040,0.00,79.00,VWS V14.01,2013-04-07 04:32:00,
2013-04-07 00:37:00,68.3,63.6,30.05,NE,49,1.0,5.0,85,0.00,,SCT040,0.00,79.00,VWS V14.01,2013-04-07 04:37:00,
2013-04-07 00:42:00,68.6,63.6,30.05,ENE,59,4.0,7.0,84,0.00,,SCT040,0.00,79.00,VWS V14.01,2013-04-07 04:42:00,
2013-04-07 00:47:00,69.2,63.8,30.04,NE,42,1.0,6.0,83,0.00,,SCT040,0.00,79.00,VWS V14.01,2013-04-07 04:47:00,
2013-04-07 00:52:00,69.6,63.9,30.04,ENE,57,5.0,7.0,82,0.00,,SCT040,0.00,79.00,VWS V14.01,2013-04-07 04:52:00,
2013-04-07 00:57:00,70.0,63.9,30.03,NE,38,3.0,10.0,81,0.00,,SCT040,0.00,79.00,VWS V14.01,2013-04-07 04:57:00,
2013-04-07 01:02:00,70.3,63.8,30.04,NE,44,6.0,9.0,80,0.00,,SCT040,0.00,79.00,VWS V14.01,2013-04-07 05:02:00,
2013-04-07 01:07:00,70.4,63.6,30.04,NE,46,1.0,5.0,79,0.00,,SCT040,0.00,79.00,VWS V14.01,2013-04-07 05:07:00,
2013-04-07 01:12:00,70.5,63.7,30.04,ENE,66,0.0,9.0,79,0.00,,SCT040,0.00,79.00,VWS V14.01,2013-04-07 05:12:00,
2013-04-07 01:17:00,70.5,63.7,30.04,ENE,59,1.0,7.0,79,0.00,,SCT040,0.00,79.00,VWS V14.01,2013-04-07 05:17:00,
2013-04-07 01:22:00,70.5,63.3,30.03,East,93,4.0,6.0,78,0.00,,SCT040,0.00,79.00,VWS V14.01,2013-04-07 05:22:00,
2013-04-07 01:27:00,70.5,63.3,30.03,ENE,65,1.0,5.0,78,0.00,,SCT040,0.00,79.00,VWS V14.01,2013-04-07 05:27:00,
2013-04-07 01:32:00,70.4,63.2,30.03,ENE,57,3.0,6.0,78,0.00,,SCT040,0.00,79.00,VWS V14.01,2013-04-07 05:32:00,
2013-04-07 01:37:00,70.4,63.6,30.03,ENE,65,1.0,8.0,79,0.00,,SCT040,0.00,79.00,VWS V14.01,2013-04-07 05:37:00,
2013-04-07 01:42:00,70.4,63.6,30.03,ENE,62,4.0,6.0,79,0.00,,SCT040,0.00,79.00,VWS V14.01,2013-04-07 05:42:00,
2013-04-07 01:47:00,70.4,63.6,30.03,NE,41,4.0,7.0,79,0.00,,SCT040,0.00,79.00,VWS V14.01,2013-04-07 05:47:00,
2013-04-07 01:52:00,70.4,63.6,30.02,ENE,71,4.0,7.0,79,0.00,,SCT040,0.00,79.00,VWS V14.01,2013-04-07 05:52:00,
2013-04-07 01:57:00,70.4,63.2,30.02,NE,53,2.0,8.0,78,0.00,,SCT040,0.00,79.00,VWS V14.01,2013-04-07 05:57:00,
2013-04-07 02:02:00,70.4,63.2,30.02,NE,42,5.0,8.0,78,0.00,,SCT040,0.00,79.00,VWS V14.01,2013-04-07 06:02:00,
2013-04-07 02:07:00,70.4,62.8,30.03,ENE,66,3.0,7.0,77,0.00,,SCT040,0.00,79.00,VWS V14.01,2013-04-07 06:07:00,
2013-04-07 02:12:00,70.4,62.8,30.03,ENE,58,2.0,7.0,77,0.00,,SCT040,0.00,79.00,VWS V14.01,2013-04-07 06:12:00,
2013-04-07 02:17:00,70.4,62.8,30.02,ENE,61,2.0,6.0,77,0.00,,SCT040,0.00,79.00,VWS V14.01,2013-04-07 06:17:00,
2013-04-07 02:22:00,70.4,62.8,30.01,NE,55,3.0,7.0,77,0.00,,SCT040,0.00,79.00,VWS V14.01,2013-04-07 06:22:00,
2013-04-07 02:27:00,70.5,63.3,30.01,ENE,67,2.0,9.0,78,0.00,,SCT040,0.00,79.00,VWS V14.01,2013-04-07 06:27:00,
2013-04-07 02:32:00,70.5,63.3,30.01,ENE,71,3.0,6.0,78,0.00,,SCT040,0.00,79.00,VWS V14.01,2013-04-07 06:32:00,
2013-04-07 02:37:00,70.4,63.6,30.01,ENE,78,1.0,11.0,79,0.00,,SCT040,0.00,79.00,VWS V14.01,2013-04-07 06:37:00,
2013-04-07 02:42:00,70.3,63.8,30.01,ENE,67,0.0,6.0,80,0.00,,SCT040,0.00,79.00,VWS V14.01,2013-04-07 06:42:00,
2013-04-07 02:47:00,70.2,63.8,30.01,ENE,71,4.0,5.0,80,0.00,,SCT040,0.00,79.00,VWS V14.01,2013-04-07 06:47:00,
2013-04-07 02:52:00,70.1,63.7,30.01,NE,56,0.0,9.0,80,0.00,,SCT040,0.00,79.00,VWS V14.01,2013-04-07 06:52:00,
2013-04-07 02:57:00,70.1,63.7,30.01,NE,54,1.0,5.0,80,0.00,,SCT040,0.00,79.00,VWS V14.01,2013-04-07 06:57:00,
2013-04-07 03:02:00,70.1,63.7,30.00,ENE,67,1.0,10.0,80,0.00,,SCT040,0.00,79.00,VWS V14.01,2013-04-07 07:02:00,
2013-04-07 03:07:00,70.2,63.8,30.00,ENE,69,0.0,4.0,80,0.00,,SCT040,0.00,79.00,VWS V14.01,2013-04-07 07:07:00,
2013-04-07 03:12:00,70.2,63.8,30.00,East,80,4.0,6.0,80,0.00,,SCT040,0.00,79.00,VWS V14.01,2013-04-07 07:12:00,
2013-04-07 03:17:00,70.4,63.9,30.01,NE,39,2.0,11.0,80,0.00,,SCT040,0.00,79.00,VWS V14.01,2013-04-07 07:17:00,
2013-04-07 03:22:00,70.6,63.8,30.01,ENE,74,5.0,7.0,79,0.00,,SCT040,0.00,79.00,VWS V14.01,2013-04-07 07:22:00,
2013-04-07 03:27:00,70.7,63.9,30.00,ENE,76,5.0,6.0,79,0.00,,SCT040,0.00,79.00,VWS V14.01,2013-04-07 07:27:00,
2013-04-07 03:32:00,70.7,63.5,30.00,ENE,74,3.0,11.0,78,0.00,,SCT040,0.00,79.00,VWS V14.01,2013-04-07 07:32:00,
2013-04-07 03:37:00,70.7,63.5,30.00,ENE,65,5.0,7.0,78,0.00,,SCT040,0.00,79.00,VWS V14.01,2013-04-07 07:37:00,
2013-04-07 03:42:00,70.6,63.4,30.00,NE,46,3.0,7.0,78,0.00,,SCT040,0.00,79.00,VWS V14.01,2013-04-07 07:42:00,
2013-04-07 03:47:00,70.5,63.3,30.00,ENE,78,1.0,6.0,78,0.00,,SCT040,0.00,79.00,VWS V14.01,2013-04-07 07:47:00,
2013-04-07 03:52:00,70.4,63.2,30.00,ENE,59,1.0,7.0,78,0.00,,SCT040,0.00,79.00,VWS V14.01,2013-04-07 07:52:00,
2013-04-07 03:57:00,70.4,63.2,30.00,ENE,70,5.0,6.0,78,0.00,,SCT040,0.00,79.00,VWS V14.01,2013-04-07 07:57:00,
2013-04-07 04:02:00,70.4,63.2,30.00,ENE,71,3.0,7.0,78,0.00,,SCT040,0.00,79.00,VWS V14.01,2013-04-07 08:02:00,
2013-04-07 04:07:00,70.4,62.8,30.00,NE,56,6.0,6.0,77,0.00,,SCT040,0.00,79.00,VWS V14.01,2013-04-07 08:07:00,
2013-04-07 04:12:00,70.4,62.8,30.00,ENE,76,3.0,7.0,77,0.00,,SCT040,0.00,79.00,VWS V14.01,2013-04-07 08:12:00,
2013-04-07 04:17:00,70.5,63.0,30.00,East,85,4.0,5.0,77,0.00,,SCT040,0.00,79.00,VWS V14.01,2013-04-07 08:17:00,
2013-04-07 04:22:00,70.5,63.0,30.00,ENE,61,3.0,10.0,77,0.00,,SCT040,0.00,79.00,VWS V14.01,2013-04-07 08:22:00,
2013-04-07 04:27:00,70.4,63.2,30.00,NE,53,4.0,6.0,78,0.00,,SCT040,0.00,79.00,VWS V14.01,2013-04-07 08:27:00,
2013-04-07 04:32:00,70.3,63.5,30.00,East,84,6.0,9.0,79,0.00,,SCT040,0.00,79.00,VWS V14.01,2013-04-07 08:32:00,
2013-04-07 04:37:00,70.1,63.3,30.00,ENE,62,4.0,8.0,79,0.00,,SCT040,0.00,79.00,VWS V14.01,2013-04-07 08:37:00,
2013-04-07 04:42:00,70.1,63.7,30.00,NE,51,1.0,2.0,80,0.00,,SCT040,0.00,79.00,VWS V14.01,2013-04-07 08:42:00,
2013-04-07 04:47:00,70.0,63.5,30.00,NNE,24,2.0,6.0,80,0.00,,SCT040,0.00,79.00,VWS V14.01,2013-04-07 08:47:00,
2013-04-07 04:52:00,69.9,63.5,30.00,East,101,3.0,5.0,80,0.00,,SCT040,0.00,79.00,VWS V14.01,2013-04-07 08:52:00,
2013-04-07 04:57:00,69.8,63.4,30.00,NE,49,2.0,6.0,80,0.00,,SCT040,0.00,79.00,VWS V14.01,2013-04-07 08:57:00,
2013-04-07 05:02:00,69.8,63.4,30.00,NE,43,3.0,6.0,80,0.00,,SCT040,0.00,79.00,VWS V14.01,2013-04-07 09:02:00,
2013-04-07 05:07:00,69.8,63.4,30.00,NNE,30,1.0,5.0,80,0.00,,SCT040,0.00,79.00,VWS V14.01,2013-04-07 09:07:00,
2013-04-07 05:12:00,69.9,63.5,30.00,NE,42,2.0,5.0,80,0.00,,SCT040,0.00,79.00,VWS V14.01,2013-04-07 09:12:00,
2013-04-07 05:17:00,69.9,63.1,30.00,East,83,1.0,5.0,79,0.00,,SCT040,0.00,79.00,VWS V14.01,2013-04-07 09:17:00,
2013-04-07 05:22:00,69.9,63.1,30.00,ENE,61,7.0,7.0,79,0.00,,SCT040,0.00,79.00,VWS V14.01,2013-04-07 09:22:00,
2013-04-07 05:27:00,69.9,63.1,30.00,ENE,75,3.0,3.0,79,0.00,,SCT040,0.00,79.00,VWS V14.01,2013-04-07 09:27:00,
2013-04-07 05:32:00,69.8,63.0,30.00,NE,49,4.0,4.0,79,0.00,,SCT040,0.00,79.00,VWS V14.01,2013-04-07 09:32:00,
2013-04-07 05:37:00,69.8,63.0,30.00,ENE,58,2.0,2.0,79,0.00,,SCT040,0.00,79.00,VWS V14.01,2013-04-07 09:37:00,
2013-04-07 05:42:00,69.8,63.4,30.00,ENE,59,3.0,3.0,80,0.00,,SCT040,0.00,79.00,VWS V14.01,2013-04-07 09:42:00,
2013-04-07 05:47:00,69.8,63.4,30.00,ENE,64,1.0,1.0,80,0.00,,SCT040,0.00,79.00,VWS V14.01,2013-04-07 09:47:00,
2013-04-07 05:52:00,69.8,63.4,30.00,NE,40,2.0,4.0,80,0.00,,SCT040,0.00,79.00,VWS V14.01,2013-04-07 09:52:00,
2013-04-07 05:57:00,69.8,63.4,30.01,ENE,58,2.0,3.0,80,0.00,,SCT040,0.00,79.00,VWS V14.01,2013-04-07 09:57:00,
2013-04-07 06:02:00,69.8,63.4,30.01,ENE,63,1.0,1.0,80,0.00,,SCT040,0.00,79.00,VWS V14.01,2013-04-07 10:02:00,
2013-04-07 06:07:00,69.8,63.4,30.01,NE,53,1.0,2.0,80,0.00,,SCT040,0.00,79.00,VWS V14.01,2013-04-07 10:07:00,
2013-04-07 06:12:00,69.8,63.4,30.01,East,79,3.0,3.0,80,0.00,,SCT040,0.00,79.00,VWS V14.01,2013-04-07 10:12:00,
2013-04-07 06:17:00,69.7,63.3,30.01,East,95,3.0,6.0,80,0.00,,SCT040,0.00,79.00,VWS V14.01,2013-04-07 10:17:00,
2013-04-07 06:22:00,69.8,63.0,30.01,ENE,71,1.0,4.0,79,0.00,,SCT040,0.00,79.00,VWS V14.01,2013-04-07 10:22:00,
2013-04-07 06:27:00,69.8,62.6,30.01,ENE,73,1.0,1.0,78,0.00,,SCT040,0.00,79.00,VWS V14.01,2013-04-07 10:27:00,
2013-04-07 06:32:00,69.8,62.6,30.01,ENE,65,3.0,3.0,78,0.00,,SCT040,0.00,79.00,VWS V14.01,2013-04-07 10:32:00,
2013-04-07 06:37:00,69.7,62.5,30.02,ENE,67,1.0,3.0,78,0.00,,SCT040,0.00,79.00,VWS V14.01,2013-04-07 10:37:00,
2013-04-07 06:42:00,69.7,62.2,30.01,ENE,69,0.0,0.0,77,0.00,,SCT040,0.00,79.00,VWS V14.01,2013-04-07 10:42:00,
2013-04-07 06:47:00,69.7,62.2,30.02,ENE,69,1.0,3.0,77,0.00,,SCT040,0.00,79.00,VWS V14.01,2013-04-07 10:47:00,
2013-04-07 06:53:00,69.6,62.4,30.02,ENE,69,0.0,0.0,78,0.00,,SCT040,0.00,79.00,VWS V14.01,2013-04-07 10:53:00,
2013-04-07 06:58:00,69.6,62.4,30.02,ENE,69,1.0,1.0,78,0.00,,SCT040,0.00,81.00,VWS V14.01,2013-04-07 10:58:00,
2013-04-07 07:03:00,69.5,62.3,30.02,ENE,69,2.0,2.0,78,0.00,,FEW040,0.00,81.00,VWS V14.01,2013-04-07 11:03:00,
2013-04-07 07:08:00,69.5,62.7,30.02,ENE,69,2.0,2.0,79,0.00,,FEW040,0.00,83.00,VWS V14.01,2013-04-07 11:08:00,
2013-04-07 07:13:00,69.5,62.7,30.02,ENE,69,2.0,2.0,79,0.00,,FEW040,0.00,84.00,VWS V14.01,2013-04-07 11:13:00,
2013-04-07 07:18:00,69.4,62.6,30.03,ENE,69,0.0,0.0,79,0.00,,FEW040,0.00,90.00,VWS V14.01,2013-04-07 11:18:00,
2013-04-07 07:23:00,69.3,62.5,30.03,ENE,69,0.0,0.0,79,0.00,,FEW040,0.00,97.00,VWS V14.01,2013-04-07 11:23:00,
2013-04-07 07:28:00,69.3,62.5,30.04,ENE,69,2.0,2.0,79,0.00,,FEW040,0.00,104.00,VWS V14.01,2013-04-07 11:28:00,
2013-04-07 07:33:00,69.3,62.5,30.04,ENE,69,0.0,1.0,79,0.00,,FEW040,0.00,111.00,VWS V14.01,2013-04-07 11:33:00,
2013-04-07 07:38:00,69.3,62.5,30.04,ENE,69,1.0,1.0,79,0.00,,FEW040,0.00,135.00,VWS V14.01,2013-04-07 11:38:00,
2013-04-07 07:43:00,69.3,62.9,30.04,ENE,69,0.0,3.0,80,0.00,,FEW040,0.00,169.00,VWS V14.01,2013-04-07 11:43:00,
2013-04-07 07:48:00,69.5,63.1,30.04,ENE,69,1.0,1.0,80,0.00,,FEW040,0.00,197.00,VWS V14.01,2013-04-07 11:48:00,
2013-04-07 07:53:00,69.8,63.4,30.05,ENE,69,1.0,3.0,80,0.00,,FEW040,0.00,206.00,VWS V14.01,2013-04-07 11:53:00,
2013-04-07 07:58:00,70.1,63.3,30.05,ENE,69,1.0,1.0,79,0.00,,FEW050,0.00,200.00,VWS V14.01,2013-04-07 11:58:00,
2013-04-07 08:03:00,70.3,63.5,30.05,ENE,69,1.0,2.0,79,0.00,,FEW050,0.00,183.00,VWS V14.01,2013-04-07 12:03:00,
2013-04-07 08:08:00,70.5,63.3,30.05,ENE,69,2.0,3.0,78,0.00,,FEW050,0.00,176.00,VWS V14.01,2013-04-07 12:08:00,
2013-04-07 08:13:00,70.7,63.1,30.05,ENE,69,3.0,3.0,77,0.00,,FEW050,0.00,178.00,VWS V14.01,2013-04-07 12:13:00,
2013-04-07 08:18:00,70.8,63.2,30.05,NE,47,2.0,3.0,77,0.00,,FEW050,0.00,183.00,VWS V14.01,2013-04-07 12:18:00,
2013-04-07 08:23:00,70.9,63.3,30.05,NE,51,2.0,2.0,77,0.00,,FEW050,0.00,167.00,VWS V14.01,2013-04-07 12:23:00,
2013-04-07 08:28:00,71.1,63.2,30.05,ENE,67,2.0,2.0,76,0.00,,FEW050,0.00,172.00,VWS V14.01,2013-04-07 12:28:00,
2013-04-07 08:33:00,71.2,62.9,30.05,ENE,71,3.0,4.0,75,0.00,,FEW050,0.00,202.00,VWS V14.01,2013-04-07 12:33:00,
2013-04-07 08:38:00,71.4,63.1,30.06,ENE,67,1.0,2.0,75,0.00,,FEW050,0.00,209.00,VWS V14.01,2013-04-07 12:38:00,
2013-04-07 08:43:00,71.6,63.3,30.07,NE,44,3.0,9.0,75,0.00,,FEW050,0.00,220.00,VWS V14.01,2013-04-07 12:43:00,
2013-04-07 08:48:00,71.8,63.8,30.07,ENE,60,4.0,5.0,76,0.00,,FEW050,0.00,346.00,VWS V14.01,2013-04-07 12:48:00,
2013-04-07 08:53:00,72.1,63.8,30.07,NE,44,3.0,3.0,75,0.00,,FEW050,0.00,234.00,VWS V14.01,2013-04-07 12:53:00,
2013-04-07 08:58:00,72.2,63.8,30.07,NE,38,1.0,4.0,75,0.00,,SCT060,0.00,388.00,VWS V14.01,2013-04-07 12:58:00,
2013-04-07 09:03:00,72.8,64.8,30.07,NE,55,4.0,4.0,76,0.00,,SCT060,0.00,483.00,VWS V14.01,2013-04-07 13:03:00,
2013-04-07 09:08:00,73.2,64.8,30.07,NE,38,4.0,6.0,75,0.00,,SCT060,0.00,432.00,VWS V14.01,2013-04-07 13:08:00,
2013-04-07 09:13:00,73.7,64.9,30.08,East,89,6.0,8.0,74,0.00,,SCT060,0.00,492.00,VWS V14.01,2013-04-07 13:13:00,
2013-04-07 09:18:00,73.8,64.2,30.08,East,80,3.0,7.0,72,0.00,,SCT060,0.00,512.00,VWS V14.01,2013-04-07 13:18:00,
2013-04-07 09:23:00,74.1,64.1,30.08,NNE,32,7.0,11.0,71,0.00,,SCT060,0.00,541.00,VWS V14.01,2013-04-07 13:23:00,
2013-04-07 09:28:00,74.3,64.3,30.08,ENE,65,3.0,4.0,71,0.00,,SCT060,0.00,561.00,VWS V14.01,2013-04-07 13:28:00,
2013-04-07 09:33:00,74.3,63.9,30.08,ENE,58,5.0,7.0,70,0.00,,SCT060,0.00,487.00,VWS V14.01,2013-04-07 13:33:00,
2013-04-07 09:38:00,74.4,64.0,30.08,NE,49,2.0,6.0,70,0.00,,SCT060,0.00,598.00,VWS V14.01,2013-04-07 13:38:00,
2013-04-07 09:43:00,74.4,63.6,30.08,East,80,6.0,8.0,69,0.00,,SCT060,0.00,221.00,VWS V14.01,2013-04-07 13:43:00,
2013-04-07 09:48:00,74.1,63.7,30.09,North,360,4.0,9.0,70,0.00,,SCT060,0.00,285.00,VWS V14.01,2013-04-07 13:48:00,
2013-04-07 09:53:00,74.0,63.6,30.09,ENE,61,4.0,6.0,70,0.00,,SCT060,0.00,315.00,VWS V14.01,2013-04-07 13:53:00,
2013-04-07 09:58:00,73.8,63.8,30.09,NE,46,3.0,10.0,71,0.00,,SCT060,0.00,302.00,VWS V14.01,2013-04-07 13:58:00,
2013-04-07 10:03:00,73.8,64.2,30.09,East,98,14.0,14.0,72,0.00,,SCT050,0.00,381.00,VWS V14.01,2013-04-07 14:03:00,
2013-04-07 10:08:00,73.9,63.9,30.09,NE,48,4.0,6.0,71,0.00,,SCT050,0.00,327.00,VWS V14.01,2013-04-07 14:08:00,
2013-04-07 10:13:00,74.0,64.0,30.09,ENE,65,6.0,8.0,71,0.00,,SCT050,0.00,359.00,VWS V14.01,2013-04-07 14:13:00,
2013-04-07 10:18:00,74.3,64.3,30.10,East,80,7.0,7.0,71,0.00,,SCT050,0.00,383.00,VWS V14.01,2013-04-07 14:18:00,
2013-04-07 10:23:00,74.8,64.8,30.10,NE,49,5.0,6.0,71,0.00,,SCT050,0.00,387.00,VWS V14.01,2013-04-07 14:23:00,
2013-04-07 10:28:00,74.7,64.3,30.10,ESE,106,4.0,10.0,70,0.00,,SCT050,0.00,427.00,VWS V14.01,2013-04-07 14:28:00,
2013-04-07 10:33:00,74.8,64.4,30.10,NE,42,9.0,9.0,70,0.00,,SCT050,0.00,420.00,VWS V14.01,2013-04-07 14:33:00,
2013-04-07 10:39:00,75.2,64.3,30.10,ENE,70,10.0,10.0,69,0.00,,SCT050,0.00,461.00,VWS V14.01,2013-04-07 14:39:00,
2013-04-07 10:44:00,75.1,64.2,30.10,ENE,59,5.0,10.0,69,0.00,,SCT050,0.00,448.00,VWS V14.01,2013-04-07 14:44:00,
2013-04-07 10:49:00,74.8,63.5,30.10,East,86,4.0,12.0,68,0.00,,SCT050,0.00,432.00,VWS V14.01,2013-04-07 14:49:00,
2013-04-07 10:54:00,74.9,64.1,30.10,NE,46,4.0,10.0,69,0.00,,SCT050,0.00,629.00,VWS V14.01,2013-04-07 14:54:00,
2013-04-07 10:59:00,75.5,64.2,30.10,ENE,67,4.0,11.0,68,0.00,,SCT050,0.00,524.00,VWS V14.01,2013-04-07 14:59:00,
2013-04-07 11:04:00,75.3,64.4,30.10,East,91,5.0,6.0,69,0.00,,SCT050,0.00,497.00,VWS V14.01,2013-04-07 15:04:00,
2013-04-07 11:09:00,75.2,64.3,30.10,ENE,74,5.0,6.0,69,0.00,,BKN080,0.00,359.00,VWS V14.01,2013-04-07 15:09:00,
2013-04-07 11:14:00,75.0,63.7,30.11,NE,46,1.0,10.0,68,0.00,,BKN080,0.00,455.00,VWS V14.01,2013-04-07 15:14:00,
2013-04-07 11:19:00,75.1,63.8,30.10,ENE,62,6.0,10.0,68,0.00,,BKN080,0.00,397.00,VWS V14.01,2013-04-07 15:19:00,
2013-04-07 11:24:00,74.8,63.5,30.10,SE,133,3.0,10.0,68,0.00,,BKN080,0.00,318.00,VWS V14.01,2013-04-07 15:24:00,
2013-04-07 11:29:00,74.7,63.5,30.11,ENE,60,3.0,12.0,68,0.00,,BKN080,0.00,461.00,VWS V14.01,2013-04-07 15:29:00,
2013-04-07 11:34:00,74.9,63.6,30.11,East,81,6.0,9.0,68,0.00,,BKN080,0.00,436.00,VWS V14.01,2013-04-07 15:34:00,
2013-04-07 11:39:00,74.9,63.2,30.11,NE,49,1.0,11.0,67,0.00,,BKN080,0.00,360.00,VWS V14.01,2013-04-07 15:39:00,
2013-04-07 11:44:00,74.7,63.5,30.11,East,90,7.0,9.0,68,0.00,,BKN080,0.00,352.00,VWS V14.01,2013-04-07 15:44:00,
2013-04-07 11:49:00,74.6,63.3,30.11,ENE,57,5.0,10.0,68,0.00,,BKN080,0.00,313.00,VWS V14.01,2013-04-07 15:49:00,
2013-04-07 11:55:00,74.4,63.6,30.11,East,96,10.0,10.0,69,0.00,,BKN080,0.00,339.00,VWS V14.01,2013-04-07 15:55:00,
2013-04-07 12:00:00,74.4,64.0,30.11,NE,44,6.0,10.0,70,0.00,,BKN080,0.00,336.00,VWS V14.01,2013-04-07 16:00:00,
2013-04-07 12:05:00,74.3,63.5,30.11,East,81,5.0,11.0,69,0.00,,SCT060,0.00,390.00,VWS V14.01,2013-04-07 16:05:00,
2013-04-07 12:10:00,74.7,64.3,30.11,ENE,64,3.0,9.0,70,0.00,,SCT060,0.00,483.00,VWS V14.01,2013-04-07 16:10:00,
2013-04-07 12:15:00,74.9,63.6,30.11,NE,38,2.0,10.0,68,0.00,,SCT060,0.00,473.00,VWS V14.01,2013-04-07 16:15:00,
2013-04-07 12:20:00,75.2,64.3,30.11,ENE,59,4.0,7.0,69,0.00,,SCT060,0.00,485.00,VWS V14.01,2013-04-07 16:20:00,
2013-04-07 12:25:00,75.1,63.4,30.11,East,82,4.0,10.0,67,0.00,,SCT060,0.00,350.00,VWS V14.01,2013-04-07 16:25:00,
2013-04-07 12:30:00,75.1,63.8,30.11,East,87,7.0,9.0,68,0.00,,SCT060,0.00,272.00,VWS V14.01,2013-04-07 16:30:00,
2013-04-07 12:35:00,74.9,64.1,30.11,East,93,0.0,6.0,69,0.00,,SCT060,0.00,216.00,VWS V14.01,2013-04-07 16:35:00,
2013-04-07 12:40:00,74.8,64.0,30.10,NNE,33,1.0,7.0,69,0.00,,SCT060,0.00,316.00,VWS V14.01,2013-04-07 16:40:00,
2013-04-07 12:45:00,74.7,63.9,30.10,ENE,74,5.0,7.0,69,0.00,,SCT060,0.00,408.00,VWS V14.01,2013-04-07 16:45:00,
2013-04-07 12:50:00,74.8,64.4,30.10,ENE,78,3.0,6.0,70,0.00,,SCT060,0.00,246.00,VWS V14.01,2013-04-07 16:50:00,
2013-04-07 12:55:00,74.4,63.6,30.10,ESE,105,3.0,8.0,69,0.00,,SCT060,0.00,292.00,VWS V14.01,2013-04-07 16:55:00,
2013-04-07 13:00:00,74.3,63.9,30.10,ENE,77,2.0,11.0,70,0.00,,SCT060,0.00,301.00,VWS V14.01,2013-04-07 17:00:00,
2013-04-07 13:05:00,74.2,63.8,30.09,ENE,74,7.0,9.0,70,0.00,,SCT060,0.00,334.00,VWS V14.01,2013-04-07 17:05:00,
2013-04-07 13:10:00,74.1,63.7,30.10,NE,41,2.0,10.0,70,0.00,,SCT060,0.00,264.00,VWS V14.01,2013-04-07 17:10:00,
2013-04-07 13:15:00,74.1,63.7,30.10,ENE,59,4.0,10.0,70,0.00,,BKN060,0.00,216.00,VWS V14.01,2013-04-07 17:15:00,
2013-04-07 13:20:00,74.1,63.7,30.09,ESE,116,7.0,7.0,70,0.00,,BKN060,0.00,260.00,VWS V14.01,2013-04-07 17:20:00,
2013-04-07 13:25:00,74.1,64.1,30.09,ENE,70,4.0,7.0,71,0.00,,BKN060,0.00,294.00,VWS V14.01,2013-04-07 17:25:00,
2013-04-07 13:30:00,74.1,64.1,30.09,ENE,72,6.0,6.0,71,0.00,,BKN060,0.00,425.00,VWS V14.01,2013-04-07 17:30:00,
2013-04-07 13:35:00,74.3,64.3,30.09,East,95,10.0,10.0,71,0.00,,BKN060,0.00,427.00,VWS V14.01,2013-04-07 17:35:00,
2013-04-07 13:40:00,74.3,63.9,30.09,ENE,77,6.0,11.0,70,0.00,,BKN060,0.00,403.00,VWS V14.01,2013-04-07 17:40:00,
2013-04-07 13:45:00,74.5,64.1,30.09,NE,48,5.0,11.0,70,0.00,,BKN060,0.00,545.00,VWS V14.01,2013-04-07 17:45:00,
2013-04-07 13:50:00,74.7,63.9,30.09,ENE,71,2.0,10.0,69,0.00,,BKN060,0.00,552.00,VWS V14.01,2013-04-07 17:50:00,
2013-04-07 13:55:00,75.0,64.2,30.09,East,90,3.0,11.0,69,0.00,,BKN060,0.00,348.00,VWS V14.01,2013-04-07 17:55:00,
2013-04-07 14:00:00,74.8,63.5,30.09,NE,46,6.0,10.0,68,0.00,,BKN060,0.00,438.00,VWS V14.01,2013-04-07 18:00:00,
2013-04-07 14:05:00,74.7,63.9,30.08,ESE,112,5.0,11.0,69,0.01,,BKN060,0.01,538.00,VWS V14.01,2013-04-07 18:05:00,
2013-04-07 14:10:00,74.7,63.5,30.08,NE,43,4.0,10.0,68,0.01,,BKN060,0.01,582.00,VWS V14.01,2013-04-07 18:10:00,
2013-04-07 14:15:00,75.0,63.7,30.07,East,81,4.0,10.0,68,0.01,,BKN060,0.01,680.00,VWS V14.01,2013-04-07 18:15:00,
2013-04-07 14:20:00,75.9,64.6,30.07,NE,49,10.0,11.0,68,0.01,,BKN060,0.01,1106.00,VWS V14.01,2013-04-07 18:20:00,
2013-04-07 14:25:00,76.2,64.4,30.07,NNE,23,2.0,10.0,67,0.01,,BKN060,0.01,469.00,VWS V14.01,2013-04-07 18:25:00,
2013-04-07 14:30:00,76.1,64.8,30.07,NE,49,7.0,11.0,68,0.01,,BKN060,0.01,1134.00,VWS V14.01,2013-04-07 18:30:00,
2013-04-07 14:35:00,75.9,63.7,30.07,East,94,6.0,10.0,66,0.01,,BKN060,0.01,919.00,VWS V14.01,2013-04-07 18:35:00,
2013-04-07 14:40:00,76.4,64.2,30.07,ENE,78,5.0,14.0,66,0.01,,BKN060,0.01,1121.00,VWS V14.01,2013-04-07 18:40:00,
2013-04-07 14:45:00,77.1,64.4,30.07,East,85,3.0,10.0,65,0.01,,BKN060,0.01,784.00,VWS V14.01,2013-04-07 18:45:00,
2013-04-07 14:50:00,76.9,64.7,30.06,East,80,4.0,7.0,66,0.01,,BKN060,0.01,417.00,VWS V14.01,2013-04-07 18:50:00,
2013-04-07 14:55:00,76.6,64.0,30.06,ENE,69,3.0,11.0,65,0.01,,BKN060,0.01,457.00,VWS V14.01,2013-04-07 18:55:00,
2013-04-07 15:00:00,76.1,63.5,30.06,NNE,23,8.0,14.0,65,0.01,,BKN060,0.01,343.00,VWS V14.01,2013-04-07 19:00:00,
2013-04-07 15:05:00,75.8,63.6,30.06,NE,53,5.0,9.0,66,0.01,,SCT060,0.01,313.00,VWS V14.01,2013-04-07 19:05:00,
2013-04-07 15:10:00,75.7,64.0,30.06,NE,52,2.0,6.0,67,0.00,,SCT060,0.01,406.00,VWS V14.01,2013-04-07 19:10:00,
2013-04-07 15:15:00,75.7,64.0,30.06,East,92,13.0,13.0,67,0.00,,SCT060,0.01,362.00,VWS V14.01,2013-04-07 19:15:00,
2013-04-07 15:20:00,75.7,64.0,30.06,ENE,75,6.0,10.0,67,0.00,,SCT060,0.01,411.00,VWS V14.01,2013-04-07 19:20:00,
2013-04-07 15:25:00,75.5,63.4,30.06,East,80,4.0,12.0,66,0.00,,SCT060,0.01,408.00,VWS V14.01,2013-04-07 19:25:00,
2013-04-07 15:30:00,75.7,63.5,30.06,NNE,27,10.0,11.0,66,0.00,,SCT060,0.01,1048.00,VWS V14.01,2013-04-07 19:30:00,
2013-04-07 15:35:00,76.0,63.4,30.06,NE,55,6.0,11.0,65,0.00,,SCT060,0.01,459.00,VWS V14.01,2013-04-07 19:35:00,
2013-04-07 15:40:00,76.0,63.4,30.06,ENE,63,7.0,10.0,65,0.00,,SCT060,0.01,369.00,VWS V14.01,2013-04-07 19:40:00,
2013-04-07 15:45:00,76.0,63.8,30.06,ENE,75,5.0,5.0,66,0.00,,SCT060,0.01,288.00,VWS V14.01,2013-04-07 19:45:00,
2013-04-07 15:50:00,75.8,63.2,30.06,East,92,3.0,7.0,65,0.00,,SCT060,0.01,295.00,VWS V14.01,2013-04-07 19:50:00,
2013-04-07 15:55:00,75.5,62.5,30.06,SSE,147,7.0,10.0,64,0.00,,SCT060,0.01,308.00,VWS V14.01,2013-04-07 19:55:00,
2013-04-07 16:00:00,75.4,62.8,30.06,ENE,58,3.0,10.0,65,0.00,,SCT060,0.01,330.00,VWS V14.01,2013-04-07 20:00:00,
2013-04-07 16:05:00,75.5,62.9,30.05,East,86,7.0,9.0,65,0.00,,SCT060,0.01,364.00,VWS V14.01,2013-04-07 20:05:00,
2013-04-07 16:10:00,75.4,62.8,30.05,ESE,110,3.0,10.0,65,0.00,,SCT060,0.01,350.00,VWS V14.01,2013-04-07 20:10:00,
2013-04-07 16:15:00,75.6,63.0,30.05,NE,45,2.0,11.0,65,0.00,,SCT060,0.01,478.00,VWS V14.01,2013-04-07 20:15:00,
2013-04-07 16:20:00,75.9,62.9,30.05,NE,42,7.0,9.0,64,0.00,,SCT060,0.01,492.00,VWS V14.01,2013-04-07 20:20:00,
2013-04-07 16:25:00,76.3,63.7,30.05,ENE,71,5.0,7.0,65,0.00,,SCT060,0.01,526.00,VWS V14.01,2013-04-07 20:25:00,
2013-04-07 16:31:00,76.5,63.4,30.05,NNE,33,13.0,13.0,64,0.00,,SCT060,0.01,520.00,VWS V14.01,2013-04-07 20:31:00,
2013-04-07 16:35:00,76.0,62.5,30.06,East,86,6.0,10.0,63,0.00,,SCT060,0.01,237.00,VWS V14.01,2013-04-07 20:35:00,
2013-04-07 16:40:00,75.7,62.7,30.05,East,92,4.0,6.0,64,0.00,,SCT060,0.01,311.00,VWS V14.01,2013-04-07 20:40:00,
2013-04-07 16:45:00,75.8,63.2,30.05,East,100,3.0,10.0,65,0.00,,SCT060,0.01,220.00,VWS V14.01,2013-04-07 20:45:00,
2013-04-07 16:51:00,75.7,63.1,30.05,NE,50,6.0,7.0,65,0.00,,SCT060,0.01,313.00,VWS V14.01,2013-04-07 20:51:00,
2013-04-07 16:56:00,75.4,62.4,30.05,ENE,68,4.0,7.0,64,0.00,,SCT060,0.01,285.00,VWS V14.01,2013-04-07 20:56:00,
2013-04-07 17:01:00,75.4,62.8,30.05,ESE,123,5.0,6.0,65,0.00,,SCT060,0.01,218.00,VWS V14.01,2013-04-07 21:01:00,
2013-04-07 17:06:00,75.2,62.6,30.05,ENE,67,5.0,10.0,65,0.00,,BKN080,0.01,241.00,VWS V14.01,2013-04-07 21:06:00,
2013-04-07 17:11:00,75.1,62.5,30.05,ESE,112,2.0,7.0,65,0.00,,BKN080,0.01,171.00,VWS V14.01,2013-04-07 21:11:00,
2013-04-07 17:16:00,75.0,62.9,30.05,ENE,74,2.0,9.0,66,0.00,,BKN080,0.01,271.00,VWS V14.01,2013-04-07 21:16:00,
2013-04-07 17:21:00,75.0,62.9,30.05,ENE,64,1.0,9.0,66,0.00,,BKN080,0.01,248.00,VWS V14.01,2013-04-07 21:21:00,
2013-04-07 17:26:00,74.9,62.3,30.05,ESE,104,2.0,9.0,65,0.00,,BKN080,0.01,257.00,VWS V14.01,2013-04-07 21:26:00,
2013-04-07 17:31:00,74.8,62.3,30.05,East,91,6.0,10.0,65,0.00,,BKN080,0.01,302.00,VWS V14.01,2013-04-07 21:31:00,
2013-04-07 17:36:00,74.8,62.3,30.06,East,98,3.0,7.0,65,0.00,,BKN080,0.01,276.00,VWS V14.01,2013-04-07 21:36:00,
2013-04-07 17:41:00,74.8,62.7,30.05,NE,54,2.0,10.0,66,0.00,,BKN080,0.01,308.00,VWS V14.01,2013-04-07 21:41:00,
2013-04-07 17:46:00,75.1,63.4,30.05,ENE,69,3.0,9.0,67,0.00,,BKN080,0.01,445.00,VWS V14.01,2013-04-07 21:46:00,
2013-04-07 17:51:00,75.1,63.4,30.05,NE,55,5.0,10.0,67,0.00,,BKN080,0.01,436.00,VWS V14.01,2013-04-07 21:51:00,
2013-04-07 17:56:00,75.2,63.5,30.05,ESE,105,3.0,10.0,67,0.00,,OVC065,0.01,281.00,VWS V14.01,2013-04-07 21:56:00,
2013-04-07 18:01:00,75.2,63.9,30.05,ESE,105,8.0,9.0,68,0.00,,OVC065,0.01,213.00,VWS V14.01,2013-04-07 22:01:00,
2013-04-07 18:06:00,74.9,63.6,30.05,East,86,0.0,10.0,68,0.00,,OVC065,0.01,260.00,VWS V14.01,2013-04-07 22:06:00,
2013-04-07 18:11:00,74.6,63.3,30.05,SE,138,2.0,10.0,68,0.00,,OVC065,0.01,329.00,VWS V14.01,2013-04-07 22:11:00,
2013-04-07 18:16:00,74.7,63.5,30.05,ESE,110,6.0,11.0,68,0.00,,OVC065,0.01,339.00,VWS V14.01,2013-04-07 22:16:00,
2013-04-07 18:21:00,74.7,63.5,30.05,East,87,9.0,10.0,68,0.00,,OVC065,0.01,264.00,VWS V14.01,2013-04-07 22:21:00,
2013-04-07 18:26:00,74.6,63.3,30.05,East,90,3.0,13.0,68,0.00,,OVC065,0.01,211.00,VWS V14.01,2013-04-07 22:26:00,
2013-04-07 18:31:00,74.4,63.6,30.05,ENE,71,6.0,8.0,69,0.00,,OVC065,0.01,223.00,VWS V14.01,2013-04-07 22:31:00,
2013-04-07 18:36:00,74.4,63.6,30.05,ENE,66,3.0,10.0,69,0.00,,OVC065,0.01,223.00,VWS V14.01,2013-04-07 22:36:00,
2013-04-07 18:41:00,74.4,63.2,30.05,ENE,70,6.0,11.0,68,0.00,,OVC065,0.01,292.00,VWS V14.01,2013-04-07 22:41:00,
2013-04-07 18:46:00,74.3,63.1,30.05,ENE,58,4.0,9.0,68,0.00,,OVC065,0.01,185.00,VWS V14.01,2013-04-07 22:46:00,
2013-04-07 18:51:00,74.2,63.0,30.05,NE,56,7.0,11.0,68,0.00,,BKN065,0.01,204.00,VWS V14.01,2013-04-07 22:51:00,
2013-04-07 18:57:00,74.1,62.9,30.05,ENE,78,0.0,9.0,68,0.00,,BKN065,0.01,193.00,VWS V14.01,2013-04-07 22:57:00,
2013-04-07 19:02:00,74.1,63.3,30.05,SE,131,6.0,10.0,69,0.00,,BKN065,0.01,178.00,VWS V14.01,2013-04-07 23:02:00,
2013-04-07 19:07:00,74.1,63.3,30.05,ENE,64,3.0,10.0,69,0.00,,BKN065,0.01,163.00,VWS V14.01,2013-04-07 23:07:00,
2013-04-07 19:12:00,74.0,63.2,30.05,East,79,7.0,9.0,69,0.00,,BKN065,0.01,137.00,VWS V14.01,2013-04-07 23:12:00,
2013-04-07 19:17:00,73.9,63.1,30.05,ENE,77,7.0,10.0,69,0.00,,BKN065,0.01,118.00,VWS V14.01,2013-04-07 23:17:00,
2013-04-07 19:22:00,73.7,62.9,30.05,ENE,77,4.0,9.0,69,0.00,,BKN065,0.01,109.00,VWS V14.01,2013-04-07 23:22:00,
2013-04-07 19:27:00,73.6,62.8,30.05,ENE,69,2.0,7.0,69,0.00,,BKN065,0.01,95.00,VWS V14.01,2013-04-07 23:27:00,
2013-04-07 19:32:00,73.4,63.0,30.05,ENE,71,3.0,10.0,70,0.00,,BKN065,0.01,90.00,VWS V14.01,2013-04-07 23:32:00,
2013-04-07 19:37:00,73.3,62.9,30.05,East,96,5.0,10.0,70,0.00,,BKN065,0.01,86.00,VWS V14.01,2013-04-07 23:37:00,
2013-04-07 19:42:00,73.2,62.8,30.05,ENE,78,3.0,6.0,70,0.00,,BKN065,0.01,83.00,VWS V14.01,2013-04-07 23:42:00,
2013-04-07 19:47:00,73.1,62.7,30.05,ENE,67,3.0,10.0,70,0.00,,BKN065,0.01,83.00,VWS V14.01,2013-04-07 23:47:00,
2013-04-07 19:52:00,73.0,62.7,30.05,ENE,71,6.0,7.0,70,0.00,,SCT065,0.01,79.00,VWS V14.01,2013-04-07 23:52:00,
2013-04-07 19:57:00,72.9,62.5,30.05,NE,51,2.0,6.0,70,0.00,,SCT065,0.01,79.00,VWS V14.01,2013-04-07 23:57:00,
2013-04-07 20:02:00,72.8,62.5,30.05,ENE,73,1.0,7.0,70,0.00,,SCT065,0.01,79.00,VWS V14.01,2013-04-08 00:02:00,
2013-04-07 20:07:00,72.7,62.8,30.05,East,86,2.0,5.0,71,0.00,,SCT065,0.01,79.00,VWS V14.01,2013-04-08 00:07:00,
2013-04-07 20:12:00,72.6,62.7,30.05,ENE,72,6.0,6.0,71,0.00,,SCT065,0.01,79.00,VWS V14.01,2013-04-08 00:12:00,
2013-04-07 20:17:00,72.5,62.6,30.05,East,92,2.0,9.0,71,0.00,,SCT065,0.01,79.00,VWS V14.01,2013-04-08 00:17:00,
2013-04-07 20:22:00,72.4,62.9,30.05,ESE,107,2.0,6.0,72,0.00,,SCT065,0.01,79.00,VWS V14.01,2013-04-08 00:22:00,
2013-04-07 20:27:00,72.4,62.9,30.05,East,83,2.0,4.0,72,0.00,,SCT065,0.01,79.00,VWS V14.01,2013-04-08 00:27:00,
2013-04-07 20:32:00,72.2,62.7,30.05,ESE,114,1.0,6.0,72,0.00,,SCT065,0.01,79.00,VWS V14.01,2013-04-08 00:32:00,
2013-04-07 20:37:00,72.1,62.6,30.06,East,101,1.0,4.0,72,0.00,,SCT065,0.01,79.00,VWS V14.01,2013-04-08 00:37:00,
2013-04-07 20:42:00,72.0,62.5,30.06,East,101,0.0,4.0,72,0.00,,SCT065,0.01,79.00,VWS V14.01,2013-04-08 00:42:00,
2013-04-07 20:47:00,71.9,62.8,30.06,East,101,1.0,2.0,73,0.00,,SCT065,0.01,79.00,VWS V14.01,2013-04-08 00:47:00,
2013-04-07 20:52:00,71.8,62.7,30.06,East,101,0.0,2.0,73,0.00,,SCT065,0.01,79.00,VWS V14.01,2013-04-08 00:52:00,
2013-04-07 20:57:00,71.7,62.6,30.06,East,101,3.0,3.0,73,0.00,,SCT065,0.01,79.00,VWS V14.01,2013-04-08 00:57:00,
2013-04-07 21:02:00,71.6,62.5,30.06,East,101,0.0,2.0,73,0.00,,SCT065,0.01,79.00,VWS V14.01,2013-04-08 01:02:00,
2013-04-07 21:07:00,71.5,62.8,30.06,East,101,0.0,2.0,74,0.00,,SCT065,0.01,79.00,VWS V14.01,2013-04-08 01:07:00,
2013-04-07 21:12:00,71.5,62.8,30.06,East,101,1.0,3.0,74,0.00,,SCT065,0.01,79.00,VWS V14.01,2013-04-08 01:12:00,
2013-04-07 21:17:00,71.3,62.6,30.06,East,101,0.0,2.0,74,0.00,,SCT065,0.01,79.00,VWS V14.01,2013-04-08 01:17:00,
2013-04-07 21:22:00,71.3,62.6,30.07,East,101,0.0,3.0,74,0.00,,SCT065,0.01,79.00,VWS V14.01,2013-04-08 01:22:00,
2013-04-07 21:27:00,71.2,62.5,30.07,East,101,1.0,2.0,74,0.00,,SCT065,0.01,79.00,VWS V14.01,2013-04-08 01:27:00,
2013-04-07 21:32:00,71.1,62.4,30.07,East,100,0.0,2.0,74,0.00,,SCT065,0.01,79.00,VWS V14.01,2013-04-08 01:32:00,
2013-04-07 21:37:00,71.1,62.8,30.07,East,101,0.0,2.0,75,0.00,,SCT065,0.01,79.00,VWS V14.01,2013-04-08 01:37:00,
2013-04-07 21:42:00,71.0,62.7,30.07,East,101,1.0,3.0,75,0.00,,SCT065,0.01,79.00,VWS V14.01,2013-04-08 01:42:00,
2013-04-07 21:47:00,71.0,62.7,30.07,East,101,0.0,2.0,75,0.00,,SCT065,0.01,79.00,VWS V14.01,2013-04-08 01:47:00,
2013-04-07 21:52:00,71.0,62.7,30.08,East,101,1.0,3.0,75,0.00,,SCT065,0.01,79.00,VWS V14.01,2013-04-08 01:52:00,
2013-04-07 21:57:00,71.0,62.7,30.08,East,101,0.0,4.0,75,0.00,,FEW030,0.01,79.00,VWS V14.01,2013-04-08 01:57:00,
2013-04-07 22:02:00,70.9,62.6,30.08,East,100,3.0,4.0,75,0.00,,FEW030,0.01,79.00,VWS V14.01,2013-04-08 02:02:00,
2013-04-07 22:07:00,70.9,62.6,30.08,East,96,0.0,3.0,75,0.00,,FEW030,0.01,79.00,VWS V14.01,2013-04-08 02:07:00,
2013-04-07 22:12:00,70.8,62.5,30.08,East,96,0.0,2.0,75,0.00,,FEW030,0.01,79.00,VWS V14.01,2013-04-08 02:12:00,
2013-04-07 22:17:00,70.7,62.4,30.08,East,95,1.0,2.0,75,0.00,,FEW030,0.01,79.00,VWS V14.01,2013-04-08 02:17:00,
2013-04-07 22:22:00,70.7,62.8,30.08,East,95,0.0,2.0,76,0.00,,FEW030,0.01,79.00,VWS V14.01,2013-04-08 02:22:00,
2013-04-07 22:27:00,70.6,62.7,30.08,East,95,1.0,3.0,76,0.00,,FEW030,0.01,79.00,VWS V14.01,2013-04-08 02:27:00,
2013-04-07 22:32:00,70.5,62.6,30.08,East,95,0.0,2.0,76,0.00,,FEW030,0.01,79.00,VWS V14.01,2013-04-08 02:32:00,
2013-04-07 22:37:00,70.4,62.5,30.07,East,95,0.0,3.0,76,0.00,,FEW030,0.01,79.00,VWS V14.01,2013-04-08 02:37:00,
2013-04-07 22:42:00,70.4,62.5,30.08,East,95,0.0,2.0,76,0.01,,FEW030,0.02,79.00,VWS V14.01,2013-04-08 02:42:00,
2013-04-07 22:47:00,70.3,62.4,30.08,East,95,0.0,1.0,76,0.01,,FEW030,0.02,79.00,VWS V14.01,2013-04-08 02:47:00,
2013-04-07 22:52:00,70.3,62.4,30.08,East,96,0.0,2.0,76,0.01,,FEW030,0.02,79.00,VWS V14.01,2013-04-08 02:52:00,
2013-04-07 22:57:00,70.2,62.3,30.08,East,96,0.0,0.0,76,0.01,,SCT030,0.02,79.00,VWS V14.01,2013-04-08 02:57:00,
2013-04-07 23:02:00,70.1,62.2,30.08,East,95,0.0,2.0,76,0.01,,SCT030,0.02,79.00,VWS V14.01,2013-04-08 03:02:00,
2013-04-07 23:07:00,70.0,62.1,30.08,East,96,0.0,0.0,76,0.01,,SCT030,0.02,79.00,VWS V14.01,2013-04-08 03:07:00,
2013-04-07 23:13:00,69.9,62.0,30.08,East,95,0.0,0.0,76,0.01,,SCT030,0.02,79.00,VWS V14.01,2013-04-08 03:13:00,
2013-04-07 23:18:00,69.8,61.9,30.08,East,95,0.0,0.0,76,0.01,,SCT030,0.02,79.00,VWS V14.01,2013-04-08 03:18:00,
2013-04-07 23:23:00,69.8,61.9,30.08,East,96,0.0,0.0,76,0.01,,SCT030,0.02,79.00,VWS V14.01,2013-04-08 03:23:00,
2013-04-07 23:28:00,69.7,62.2,30.08,East,96,0.0,0.0,77,0.01,,SCT030,0.02,79.00,VWS V14.01,2013-04-08 03:28:00,
2013-04-07 23:33:00,69.6,62.1,30.08,East,96,0.0,0.0,77,0.01,,SCT030,0.02,79.00,VWS V14.01,2013-04-08 03:33:00,
2013-04-07 23:38:00,69.5,62.0,30.08,East,95,0.0,0.0,77,0.01,,SCT030,0.02,79.00,VWS V14.01,2013-04-08 03:38:00,
2013-04-07 23:43:00,69.4,61.9,30.07,East,96,0.0,0.0,77,0.00,,SCT030,0.02,79.00,VWS V14.01,2013-04-08 03:43:00,
2013-04-07 23:48:00,69.3,62.2,30.07,East,96,0.0,0.0,78,0.00,,SCT030,0.02,79.00,VWS V14.01,2013-04-08 03:48:00,
2013-04-07 23:53:00,69.2,62.1,30.07,East,95,0.0,0.0,78,0.00,,SCT030,0.02,79.00,VWS V14.01,2013-04-08 03:53:00,
2013-04-07 23:58:00,69.1,62.0,30.07,East,95,0.0,0.0,78,0.00,,SCT030,0.02,79.00,VWS V14.01,2013-04-08 03:58:00,